Kirkville, IA

10:49 AM CDT on August 30, 2016 (GMT -0500)
Ottumwa Industrial

Weather History for KOTM - August, 2012

Change the Weather History Date:

Friday, August 24, 2012

  Actual Average Record
Temperature  
Mean Temperature 78 °F 72 °F  
Max Temperature 92 °F 83 °F 107 °F (1936)
Min Temperature 64 °F 61 °F 43 °F (1942)
Degree Days  
Heating Degree Days 0 0  
Month to date heating degree days 5 0  
Since 1 June heating degree days 18 23  
Since 1 July heating degree days 5 2  
Cooling Degree Days 13 7  
Month to date cooling degree days 157 208  
Year to date cooling degree days 1057 787  
Since 1 June cooling degree days 903 723  
Growing Degree Days 28 (Base 50)    
Moisture  
Dew Point 52 °F    
Average Humidity 44    
Maximum Humidity 67    
Minimum Humidity 21    
Precipitation  
Precipitation T in 0.15 in 1.62 in (1962)
Month to date precipitation 2.25 3.59  
Year to date precipitation 17.74 25.68  
Sea Level Pressure  
Sea Level Pressure 29.93 in    
Wind  
Wind Speed 8 mph (South)    
Max Wind Speed 22 mph    
Max Gust Speed 28 mph    
Visibility 10 miles    
Events Rain    
T = Trace of Precipitation, MM = Missing Value Source: NWS Daily Summary

Daily Weather History Graph

Daily Weather History Graph

Search for Another Location

Airport or City:

Trip Planner

Search our weather history database for the weather conditions in past years. The results will help you decide how hot, cold, wet, or windy it might be!

Date:

Astronomy

Aug. 24, 2012 Rise Set
Actual Time 6:28 AM CDT 7:54 PM CDT
Civil Twilight 6:00 AM CDT 8:23 PM CDT
Nautical Twilight 5:25 AM CDT 8:57 PM CDT
Astronomical Twilight 4:48 AM CDT 9:34 PM CDT
Moon 2:26 PM CDT (8/24) No Moon Set
Length of Visible Light 14h 22m
Length of Day
13h 25m
First Quarter, 52% of the Moon is Illuminated
Aug 24
First Quarter
Aug 31
Full
Sep 8
Last Quarter
Sep 15
New
Sep 22
First Quarter

Hourly Weather History & Observations

Time (CDT) Temp. Heat Index Dew Point Humidity Pressure Visibility Wind Dir Wind Speed Gust Speed Precip Events Conditions
12:53 AM 72.0 °F - 50.0 °F 46% 29.93 in 10.0 mi South 6.9 mph - N/A   Clear
1:53 AM 68.0 °F - 51.1 °F 55% 29.92 in 10.0 mi South 6.9 mph - N/A   Clear
2:53 AM 68.0 °F - 51.1 °F 55% 29.92 in 10.0 mi South 5.8 mph - N/A   Clear
3:53 AM 64.9 °F - 51.1 °F 61% 29.92 in 10.0 mi South 5.8 mph - N/A   Clear
4:53 AM 64.9 °F - 51.1 °F 61% 29.93 in 10.0 mi South 6.9 mph - N/A   Clear
5:53 AM 64.9 °F - 51.1 °F 61% 29.95 in 10.0 mi South 5.8 mph - N/A   Clear
6:53 AM 66.0 °F - 52.0 °F 60% 29.96 in 10.0 mi South 5.8 mph - N/A   Clear
7:53 AM 70.0 °F - 53.1 °F 55% 29.97 in 10.0 mi South 6.9 mph - N/A   Clear
8:53 AM 73.9 °F - 54.0 °F 50% 29.98 in 10.0 mi South 9.2 mph - N/A   Clear
9:53 AM 80.1 °F 80.1 °F 55.0 °F 42% 29.98 in 10.0 mi SSW 8.1 mph - N/A   Clear
10:53 AM 84.0 °F 83.0 °F 55.9 °F 38% 29.97 in 10.0 mi South 6.9 mph - N/A   Clear
11:53 AM 88.0 °F 85.9 °F 54.0 °F 31% 29.95 in 10.0 mi SSW 13.8 mph 19.6 mph N/A   Clear
12:53 PM 89.1 °F - 52.0 °F 28% 29.94 in 10.0 mi SSW 15.0 mph 24.2 mph 0.00 in Rain Light Rain
1:53 PM 91.0 °F - 51.1 °F 25% 29.92 in 10.0 mi South 13.8 mph 26.5 mph 0.00 in   Partly Cloudy
2:53 PM 91.0 °F - 48.0 °F 23% 29.90 in 10.0 mi South 13.8 mph 24.2 mph N/A   Clear
3:53 PM 91.0 °F - 46.0 °F 21% 29.90 in 10.0 mi South 16.1 mph 24.2 mph N/A   Clear
4:53 PM 90.0 °F - 48.0 °F 24% 29.89 in 10.0 mi SSW 13.8 mph 20.7 mph N/A   Clear
5:53 PM 89.1 °F - 48.9 °F 25% 29.89 in 10.0 mi South 10.4 mph 18.4 mph N/A   Clear
6:53 PM 84.9 °F - 50.0 °F 30% 29.90 in 10.0 mi SSW 5.8 mph - N/A   Clear
7:53 PM 73.9 °F - 55.0 °F 52% 29.91 in 10.0 mi Calm Calm - N/A   Clear
8:53 PM 72.0 °F - 54.0 °F 53% 29.91 in 10.0 mi Calm Calm - N/A   Clear
9:53 PM 68.0 °F - 54.0 °F 61% 29.92 in 10.0 mi Calm Calm - N/A   Clear
10:53 PM 64.9 °F - 54.0 °F 68% 29.92 in 10.0 mi Calm Calm - N/A   Clear
11:53 PM 66.0 °F - 53.1 °F 63% 29.92 in 10.0 mi SSE 4.6 mph - N/A   Clear